Temperature
16 16 17 17 17 17 16 15 15 15 15 15 15 15 15 15 15 15 15 15 15 15 15 15 15 15 15 15 15 15 14 14 14 14 14 14 13 13 13 13 13 13 12 12
16 17 17 17 17 16 16 16 15 15 15 15 15 15 15 15 15 15 15 15 15 15 15 15 15 15 15 15 15 14 14 14 14 14 13 13 13 13 13 13 12 12 12 12
14 15 16 15 16 16 16 15 15 15 15 14 14 14 14 15 14 14 15 15 15 15 15 15 14 14 14 14 14 14 14 14 13 13 13 13 13 13 12 12 12 12 12 12
13 15 15 15 15 15 15 15 15 14 14 14 14 15 15 15 15 14 14 15 15 15 14 14 14 14 14 14 14 14 13 13 13 13 13 13 12 12 12 12 12 12 11 11
12 13 14 15 15 15 15 14 14 14 14 14 14 14 14 15 15 15 14 14 14 14 14 14 14 14 13 13 13 13 13 13 13 13 13 12 12 12 12 12 11 11 11 11
11 13 13 14 15 16 15 13 14 13 13 13 13 11 12 14 14 14 14 14 14 14 14 13 13 13 13 13 13 13 13 13 12 12 12 12 12 12 11 11 11 11 10 10
11 12 12 13 15 15 14 13 14 14 14 13 12 13 14 14 14 14 14 13 13 13 13 13 13 13 13 13 13 13 12 12 12 12 12 12 11 11 11 11 11 10 10 10
10 11 12 13 14 13 13 14 14 14 14 14 14 13 13 13 13 13 13 13 13 13 12 12 12 12 12 12 12 12 12 12 12 11 11 11 11 11 10 10 10 10 10 10
10 11 12 13 13 14 14 14 14 14 14 14 13 13 13 12 12 12 12 12 12 12 12 12 12 12 12 12 12 12 12 11 11 11 11 10 10 10 10 10 10 9 9 9
10 11 11 12 13 13 13 13 13 13 13 13 12 12 12 12 12 12 12 11 11 11 11 11 11 11 11 11 11 11 11 11 11 10 10 10 10 10 10 9 9 9 9 9
10 10 11 11 12 12 12 12 12 12 12 12 12 11 11 11 11 11 11 11 11 11 11 11 11 11 11 11 11 11 11 10 10 10 10 10 9 9 9 9 9 9 9 8
9 10 10 11 11 11 11 11 11 11 11 11 11 11 11 11 10 10 10 10 10 10 10 10 10 10 10 10 10 10 10 10 10 10 9 9 9 9 9 8 8 8 8 8
12 11 11 11 11 11 11 11 11 11 10 10 10 10 10 10 10 10 10 10 10 10 10 10 10 10 10 10 10 10 10 9 9 9 9 9 9 8 8 8 8 8 8 7
11 11 10 10 10 10 10 10 10 10 10 10 10 10 9 9 9 9 10 9 9 9 9 9 9 9 9 9 9 9 9 9 9 9 8 8 8 8 8 8 8 8 7 7
10 10 10 10 10 10 10 10 9 9 9 9 9 9 9 9 9 9 9 9 9 9 9 9 9 9 9 9 8 8 8 8 8 8 8 8 8 7 7 7 7 7 7 7
10 10 10 9 9 9 9 9 8 8 8 8 8 8 8 8 8 8 8 8 8 8 8 8 8 8 8 8 8 8 8 8 7 7 7 7 7 7 7 7 6 6 6 6
9 9 8 8 8 8 8 8 8 7 7 7 7 8 8 7 7 7 7 7 7 7 7 7 8 8 8 8 7 7 7 7 7 7 7 6 6 6 6 6 6 6 6 6
9 9 9 8 8 8 7 7 7 7 7 7 7 7 7 7 7 7 7 7 7 7 7 7 7 7 7 7 7 7 7 7 6 6 6 6 6 6 6 6 5 5 5 5
8 8 8 8 7 7 7 7 7 7 7 6 6 6 6 6 6 6 6 6 6 6 6 6 6 6 6 6 6 6 6 6 6 6 6 6 5 5 5 5 5 5 5 4
8 7 7 7 7 7 6 6 6 6 6 6 6 6 6 6 5 5 5 5 5 5 5 5 5 6 6 6 6 5 5 5 5 5 5 5 5 5 5 5 4 4 4 4
7 7 7 7 6 6 6 6 6 5 5 5 5 5 5 5 5 5 5 5 5 5 5 5 5 5 5 5 5 5 5 5 5 5 5 4 4 4 4 4 4 4 4 3
7 6 6 6 6 6 6 5 5 5 5 5 5 5 5 4 4 4 4 4 4 4 4 4 4 4 4 4 4 4 4 4 4 4 4 4 4 4 4 3 3 3 3 3
6 6 6 6 5 5 5 5 5 5 4 4 4 4 4 4 4 4 4 4 4 4 4 4 4 4 4 4 4 4 4 4 4 4 4 4 3 3 3 3 3 3 2 2
6 5 5 5 5 5 4 4 4 4 4 4 4 4 3 3 3 3 3 3 3 3 3 3 3 3 3 3 3 3 3 4 3 3 3 3 3 3 3 2 2 2 2 2
5 5 5 5 4 4 4 4 4 4 3 3 3 3 3 3 3 3 3 3 3 3 3 3 3 3 3 3 3 3 3 3 3 3 3 3 3 2 2 2 2 2 2 2
5 5 4 4 4 4 4 3 3 3 3 3 3 3 3 3 2 2 2 2 2 2 2 2 2 2 3 3 3 3 3 3 2 2 2 2 2 2 2 2 1 1 1 1
4 4 4 4 3 3 3 3 3 3 2 2 2 2 2 2 2 2 2 2 2 2 2 2 2 2 2 2 2 2 2 2 2 2 2 2 1 1 1 1 1 1 1 1
Wind_Speed
5 5 3 2 4 3 4 6 7 7 6 6 5 5 5 3 3 3 2 3 3 3 2 2 1 2 4 5 5 6 6 6 6 6 5 5 4 4 4 3 4 4 3 3
2 3 1 2 3 4 4 4 4 3 4 4 3 1 2 2 3 3 3 3 3 3 2 2 2 2 3 4 5 6 7 7 6 5 5 5 4 4 4 3 3 3 4 4
3 4 2 3 3 2 2 2 4 5 5 1 1 1 3 3 3 3 3 3 4 4 4 4 4 3 4 4 4 5 6 5 5 5 4 4 4 4 4 4 4 3 3 4
1 1 3 5 2 2 3 0 1 2 1 1 3 2 2 3 4 3 3 3 3 3 3 2 2 2 2 3 4 5 5 5 5 5 5 4 4 4 4 3 4 4 4 4
2 2 4 4 3 1 2 2 1 1 0 1 2 4 3 1 1 2 3 2 3 3 3 2 1 2 2 3 4 4 5 5 5 6 5 4 4 5 4 3 3 3 3 3
2 3 5 5 5 2 3 1 4 1 2 1 3 1 4 3 1 0 0 1 1 1 2 2 2 3 3 3 4 4 5 5 5 5 6 6 6 5 3 3 3 3 2 3
3 3 5 5 4 3 2 5 4 2 2 2 2 4 4 2 1 1 1 1 1 2 1 1 1 3 3 3 4 5 4 4 4 4 5 6 5 4 3 3 3 2 2 2
4 3 6 4 2 2 4 2 1 0 0 0 1 1 1 1 1 1 1 1 1 1 0 1 1 2 2 4 4 3 3 4 4 4 4 4 4 3 4 4 3 3 2 2
5 5 3 1 2 1 1 1 1 1 1 1 1 1 2 1 1 1 0 1 1 1 0 2 1 2 2 3 3 3 3 3 3 3 3 4 5 4 3 3 4 4 3 3
1 2 1 2 3 3 2 1 1 1 1 2 2 1 1 1 2 1 1 1 1 1 0 1 2 2 2 2 2 3 3 3 3 3 3 3 4 4 4 4 5 5 5 5
2 3 2 3 3 2 3 4 3 3 2 2 2 1 1 1 2 2 2 2 1 1 1 3 3 2 2 1 2 2 2 3 3 3 3 3 3 4 5 6 7 7 6 6
4 4 3 4 3 2 3 3 2 3 4 3 2 1 1 1 1 1 2 2 2 2 2 3 3 3 3 2 3 3 2 2 2 3 3 3 3 2 4 5 7 8 8 7
4 2 2 2 1 2 1 1 2 2 2 2 2 1 1 1 2 2 2 2 3 3 4 3 3 3 3 3 3 4 3 3 3 3 3 3 3 4 3 3 4 5 7 8
1 2 1 1 1 1 1 2 2 2 2 2 2 2 1 2 2 3 3 4 3 3 4 3 3 4 4 3 3 4 4 4 3 3 4 4 4 4 4 4 4 3 4 6
1 2 2 0 2 3 3 3 3 3 3 3 2 2 2 2 3 4 4 4 3 3 3 3 4 4 4 3 4 4 4 3 3 3 3 4 4 4 4 4 4 3 3 3
1 3 3 3 2 3 3 3 2 2 2 2 3 3 2 2 3 3 4 3 3 4 4 4 4 5 3 2 3 3 3 5 4 3 3 3 3 3 4 4 4 4 4 4
3 2 1 1 1 2 2 1 1 2 2 3 3 3 3 3 4 4 5 4 4 4 4 4 5 4 2 2 3 3 3 3 4 3 3 3 3 4 4 4 4 4 4 4
4 3 3 3 2 0 2 2 1 2 2 3 3 3 3 3 4 5 5 5 5 5 5 5 4 3 3 3 3 2 2 3 3 3 3 3 3 4 4 4 4 4 3 3
2 2 2 1 1 1 1 2 2 2 2 2 3 3 3 3 4 4 4 4 5 6 6 6 6 4 3 4 3 2 2 3 3 3 3 4 4 3 4 4 4 4 3 3
2 2 2 1 1 1 1 2 2 2 3 3 3 3 4 4 4 4 4 4 4 5 6 5 4 4 4 4 4 2 3 3 3 3 3 3 3 4 4 4 4 4 3 3
2 2 1 1 1 1 1 1 1 2 3 3 3 4 5 5 4 3 3 5 6 6 6 6 4 4 4 4 4 3 3 3 3 3 3 3 4 4 4 4 4 3 4 3
2 1 0 1 1 2 2 2 2 2 3 3 3 4 4 5 5 4 4 4 6 7 5 4 4 6 6 5 2 3 3 3 3 3 3 4 4 4 4 3 3 3 3 3
2 1 1 1 1 2 2 2 2 2 3 3 4 4 4 4 4 3 5 5 5 7 5 4 7 9 8 4 2 2 3 3 3 3 4 4 4 4 3 3 3 3 3 3
1 1 1 1 0 1 2 3 3 3 3 3 3 4 4 4 4 4 5 7 8 8 5 6 9 9 7 3 3 3 3 3 3 3 3 3 3 3 3 3 3 3 3 3
2 2 1 1 1 2 3 3 3 3 3 3 4 5 4 3 4 5 5 5 7 7 4 7 9 8 5 3 3 3 3 3 3 3 3 3 3 3 3 3 3 3 3 3
2 2 3 3 3 2 2 2 2 3 3 3 4 5 5 4 4 4 4 5 6 6 4 4 4 5 3 3 3 3 3 3 4 3 3 3 3 3 3 3 4 4 4 4
2 2 1 1 2 2 2 2 2 3 3 3 5 5 5 5 4 4 4 4 4 4 4 3 3 3 3 3 3 3 3 2 2 3 3 3 3 3 3 4 4 4 3 3
Wind_Direction
230 222 197 228 250 226 196 194 198 224 219 237 222 208 203 184 159 147 144 144 150 159 169 177 181 212 202 200 193 178 167 170 183 187 182 180 179 179 177 170 172 171 164 168
282 250 219 273 268 235 224 210 204 212 250 252 230 146 149 182 172 166 177 179 174 170 168 182 192 209 201 196 195 175 171 179 180 173 171 177 184 181 172 170 176 167 168 175
273 293 16 287 264 215 199 211 183 213 237 247 96 156 192 193 188 197 204 199 195 196 194 199 204 201 200 199 178 169 176 179 174 172 175 184 181 173 179 183 176 180 186 181
233 19 227 246 269 158 151 68 135 157 226 197 184 214 214 182 169 199 213 207 214 212 208 213 205 209 210 185 167 173 179 176 172 170 177 179 168 175 188 183 185 194 198 194
145 213 267 291 295 205 169 258 326 141 115 44 98 62 358 299 165 186 197 205 209 206 189 184 196 194 169 167 167 172 184 185 185 179 177 174 179 189 189 179 187 194 191 187
138 186 234 255 288 303 102 254 301 206 175 143 83 82 264 277 290 2 11 175 183 176 142 141 183 170 155 173 169 184 198 199 196 187 179 183 192 194 189 184 189 179 179 191
169 214 258 265 293 55 133 249 282 227 200 169 195 222 231 238 207 164 125 86 112 120 135 191 190 151 159 177 195 204 197 189 189 192 189 188 189 187 177 178 166 168 187 213
157 192 256 295 77 147 229 272 308 280 178 143 297 4 120 141 134 103 71 60 78 99 35 318 160 150 181 208 216 199 181 179 186 191 191 182 173 180 179 173 169 184 197 224
184 206 263 307 158 220 133 81 2 35 342 87 87 32 18 9 2 358 41 32 30 101 359 345 324 174 203 225 206 177 170 182 186 189 190 181 180 183 183 183 188 203 204 219
213 267 318 11 36 35 46 68 26 56 72 90 88 76 24 4 350 344 326 306 336 65 78 314 305 262 223 216 184 159 174 191 188 185 197 197 196 192 190 197 203 210 214 223
257 279 348 355 355 9 19 35 41 35 40 78 89 68 32 354 340 322 316 315 325 303 261 272 284 284 273 209 163 165 187 193 197 196 196 208 213 212 208 215 212 211 216 214
225 232 204 255 288 2 38 33 38 32 18 22 58 49 13 336 315 312 315 320 315 293 270 277 279 276 275 229 179 169 181 198 198 196 198 207 211 250 251 235 234 228 221 218
210 211 196 229 305 19 44 25 31 51 58 29 22 32 11 323 317 321 321 310 286 275 266 269 267 264 263 238 191 182 193 206 207 201 202 209 213 216 246 276 261 240 232 229
154 116 79 356 301 339 18 17 29 38 38 45 29 16 10 344 331 323 306 289 279 276 278 272 260 260 262 240 206 205 209 217 216 213 213 214 218 223 222 224 243 262 255 241
117 124 156 110 37 31 34 45 44 26 11 5 8 8 357 338 319 309 307 307 306 302 295 278 260 264 268 244 219 213 214 222 224 222 219 221 222 222 223 227 231 244 258 253
80 71 80 71 49 32 38 44 39 351 341 340 340 329 317 307 304 307 313 322 321 302 291 278 265 265 262 239 223 224 229 238 232 219 220 223 223 223 226 227 228 231 234 235
113 104 89 66 24 9 4 338 308 306 316 316 303 304 319 334 334 328 324 317 303 294 291 284 275 272 264 228 220 230 231 239 242 231 223 222 223 227 226 224 227 231 239 238
170 177 174 170 167 46 339 335 319 313 298 299 310 322 326 322 311 307 310 317 324 324 316 301 291 279 259 235 231 232 230 235 233 228 226 226 232 231 227 223 225 230 239 240
125 124 123 124 135 107 330 320 307 303 307 319 322 309 296 292 294 301 311 320 318 309 307 305 304 296 266 251 251 230 228 234 238 238 232 239 240 233 228 226 225 224 221 221
121 127 122 99 66 36 309 308 323 325 319 323 324 316 309 303 301 303 305 297 287 286 292 302 302 291 277 261 259 233 225 228 232 237 235 231 233 233 232 230 227 224 220 217
136 124 104 84 16 329 296 288 299 308 310 313 312 303 298 297 299 298 299 299 301 303 305 308 305 291 283 273 258 233 225 229 232 234 235 231 231 232 233 232 229 226 222 217
151 141 111 360 340 323 316 308 300 302 313 315 313 313 314 308 303 298 282 278 290 304 307 295 291 296 300 290 254 234 228 227 230 233 237 235 232 234 233 227 223 227 224 217
169 173 191 268 280 295 320 323 317 311 308 306 303 301 299 293 285 285 293 293 290 301 303 285 297 303 301 290 270 252 241 233 232 232 235 236 233 231 227 226 225 223 222 225
184 194 212 247 306 345 312 304 306 299 294 295 293 291 293 298 297 282 275 298 309 307 300 298 304 306 304 294 277 263 251 243 240 240 240 237 232 229 222 222 226 227 223 225
205 214 220 226 257 269 273 291 308 311 310 307 305 302 295 278 277 288 291 294 304 310 303 308 314 314 308 290 278 270 262 253 249 243 236 237 235 232 230 226 227 227 225 226
222 225 229 228 231 241 250 262 279 290 298 304 304 302 302 298 292 294 296 297 298 307 307 301 306 308 301 293 284 277 272 272 267 255 244 244 241 237 238 237 235 234 231 231
224 228 228 262 268 246 244 253 267 280 279 280 292 296 299 299 296 293 294 297 298 297 295 298 298 298 298 297 297 291 282 271 258 249 245 244 244 243 242 242 242 242 240 237
Height
1495 1491 1492 1493 1492 1492 1495 1499 1505 1501 1499 1494 1491 1490 1489 1489 1490 1490 1490 1491 1491 1491 1492 1493 1494 1495 1497 1498 1499 1501 1502 1503 1504 1506 1507 1509 1510 1510 1511 1512 1513 1513 1513 1514
1495 1489 1489 1492 1490 1490 1491 1492 1494 1495 1495 1489 1488 1488 1489 1489 1489 1488 1488 1489 1489 1490 1490 1491 1491 1492 1493 1495 1496 1498 1499 1500 1501 1503 1504 1505 1506 1507 1508 1509 1510 1510 1510 1511
1503 1493 1492 1498 1491 1490 1490 1489 1490 1494 1492 1488 1488 1488 1487 1487 1487 1487 1487 1487 1487 1487 1487 1488 1489 1490 1490 1491 1493 1494 1495 1497 1498 1500 1501 1502 1503 1504 1504 1505 1506 1507 1507 1507
1504 1500 1506 1497 1486 1486 1488 1488 1487 1488 1487 1486 1486 1486 1486 1485 1485 1485 1485 1485 1485 1485 1485 1485 1486 1487 1488 1489 1490 1491 1492 1493 1495 1496 1497 1498 1499 1500 1501 1502 1503 1503 1503 1504
1507 1507 1502 1492 1486 1486 1488 1489 1487 1487 1486 1485 1484 1485 1485 1485 1485 1484 1483 1483 1483 1483 1483 1484 1484 1485 1486 1487 1487 1488 1489 1490 1491 1492 1493 1495 1495 1496 1497 1498 1499 1499 1500 1500
1506 1506 1507 1495 1484 1481 1485 1491 1486 1485 1485 1485 1484 1489 1487 1484 1483 1483 1482 1482 1482 1482 1482 1483 1483 1484 1484 1485 1485 1485 1486 1487 1488 1489 1490 1491 1492 1492 1493 1494 1495 1495 1496 1496
1505 1506 1500 1488 1483 1483 1495 1493 1485 1483 1483 1483 1483 1484 1483 1482 1482 1481 1481 1481 1480 1480 1481 1481 1481 1482 1482 1482 1482 1483 1484 1484 1485 1486 1487 1487 1488 1489 1489 1490 1491 1492 1492 1493
1505 1507 1503 1485 1484 1488 1488 1484 1483 1483 1482 1482 1481 1481 1480 1480 1480 1480 1479 1479 1478 1478 1478 1479 1479 1479 1478 1479 1480 1480 1481 1481 1482 1482 1483 1484 1485 1485 1486 1486 1487 1488 1488 1488
1496 1497 1489 1485 1485 1485 1484 1483 1483 1482 1482 1482 1481 1480 1480 1479 1479 1478 1478 1478 1477 1477 1477 1477 1477 1477 1476 1477 1477 1478 1478 1478 1478 1479 1480 1481 1481 1481 1482 1483 1483 1484 1484 1484
1492 1489 1487 1486 1484 1484 1484 1483 1483 1482 1482 1481 1480 1480 1479 1479 1478 1477 1477 1476 1476 1475 1475 1475 1475 1475 1475 1475 1475 1475 1475 1475 1475 1476 1476 1477 1478 1478 1478 1479 1479 1480 1480 1480
1490 1488 1486 1485 1485 1484 1483 1482 1482 1481 1481 1480 1479 1479 1478 1478 1477 1476 1475 1475 1474 1474 1473 1473 1473 1472 1472 1472 1472 1472 1472 1472 1472 1472 1473 1473 1474 1474 1474 1475 1475 1476 1476 1476
1489 1486 1486 1485 1484 1484 1482 1482 1481 1480 1479 1479 1479 1478 1477 1477 1476 1475 1474 1473 1472 1472 1471 1471 1470 1470 1470 1470 1470 1469 1469 1469 1469 1469 1469 1470 1470 1470 1470 1471 1472 1472 1473 1473
1483 1483 1483 1483 1483 1483 1482 1481 1480 1480 1479 1478 1478 1477 1476 1475 1474 1473 1472 1471 1470 1469 1469 1468 1467 1467 1467 1467 1467 1466 1466 1466 1465 1465 1466 1466 1466 1466 1465 1466 1467 1467 1468 1468
1480 1481 1481 1481 1481 1481 1481 1480 1480 1479 1478 1477 1476 1476 1475 1473 1472 1471 1470 1469 1468 1467 1466 1465 1464 1464 1464 1463 1463 1462 1462 1462 1462 1462 1462 1462 1462 1461 1461 1461 1461 1462 1463 1463
1479 1479 1480 1480 1480 1480 1479 1478 1478 1477 1476 1476 1475 1474 1473 1471 1470 1469 1467 1466 1465 1464 1463 1462 1461 1460 1460 1460 1459 1459 1458 1458 1458 1458 1457 1457 1457 1457 1457 1457 1457 1457 1457 1458
1478 1478 1478 1478 1478 1477 1477 1477 1476 1475 1475 1474 1473 1472 1471 1469 1468 1466 1465 1464 1462 1460 1459 1458 1457 1457 1456 1455 1455 1454 1454 1454 1454 1453 1453 1453 1452 1452 1452 1452 1452 1452 1452 1452
1476 1476 1476 1476 1476 1476 1476 1475 1475 1474 1473 1472 1471 1470 1468 1467 1465 1464 1462 1461 1459 1458 1457 1455 1454 1453 1453 1452 1451 1450 1450 1449 1449 1449 1448 1448 1448 1447 1447 1447 1447 1447 1447 1447
1474 1475 1475 1475 1475 1475 1475 1474 1473 1472 1471 1470 1469 1468 1466 1464 1463 1461 1460 1458 1456 1454 1453 1452 1451 1450 1449 1448 1447 1446 1445 1445 1444 1444 1443 1443 1443 1443 1443 1442 1442 1442 1442 1442
1473 1473 1473 1474 1474 1473 1473 1472 1471 1470 1469 1468 1466 1465 1463 1462 1460 1459 1457 1455 1453 1450 1449 1449 1448 1446 1445 1444 1443 1442 1441 1440 1439 1439 1439 1438 1438 1438 1438 1437 1437 1437 1437 1437
1471 1472 1472 1472 1472 1472 1471 1470 1469 1468 1467 1466 1464 1462 1461 1459 1458 1456 1454 1452 1450 1448 1446 1445 1444 1442 1441 1440 1439 1438 1437 1436 1435 1434 1434 1433 1433 1433 1433 1433 1432 1432 1432 1432
1470 1470 1470 1470 1470 1470 1469 1468 1467 1466 1465 1463 1461 1459 1458 1456 1454 1453 1451 1448 1447 1445 1443 1442 1440 1438 1437 1436 1435 1433 1432 1431 1430 1430 1429 1429 1429 1428 1428 1427 1427 1427 1427 1427
1468 1468 1469 1468 1468 1467 1467 1466 1465 1463 1462 1460 1458 1457 1455 1452 1451 1449 1447 1446 1444 1442 1440 1438 1436 1435 1433 1432 1430 1429 1428 1427 1426 1426 1425 1425 1424 1424 1423 1423 1423 1422 1422 1423
1466 1467 1467 1467 1466 1465 1464 1463 1462 1461 1459 1457 1455 1454 1452 1450 1448 1446 1443 1442 1440 1438 1436 1434 1432 1431 1429 1427 1426 1425 1424 1423 1422 1422 1421 1421 1420 1420 1419 1419 1419 1419 1419 1419
1464 1464 1464 1464 1463 1462 1461 1460 1459 1458 1456 1454 1453 1451 1449 1446 1444 1442 1440 1438 1436 1434 1432 1430 1428 1426 1425 1423 1422 1421 1420 1419 1419 1418 1417 1417 1416 1416 1416 1415 1415 1415 1415 1415
1462 1462 1461 1461 1460 1459 1458 1456 1455 1454 1452 1451 1449 1447 1445 1443 1441 1438 1436 1434 1432 1430 1427 1426 1424 1422 1421 1419 1418 1417 1416 1415 1415 1414 1413 1413 1412 1412 1412 1411 1411 1411 1411 1410
1458 1458 1458 1457 1456 1455 1454 1453 1451 1450 1448 1446 1445 1443 1441 1439 1437 1435 1432 1430 1428 1425 1423 1421 1420 1418 1417 1415 1414 1413 1412 1412 1411 1410 1410 1409 1408 1408 1407 1407 1407 1407 1407 1406
1454 1454 1454 1453 1452 1452 1451 1449 1448 1446 1444 1443 1441 1439 1437 1435 1433 1430 1428 1426 1423 1421 1420 1418 1416 1414 1413 1412 1411 1410 1409 1408 1407 1406 1406 1405 1404 1404 1403 1403 1403 1402 1402 1402